EW6434 Weather Reports


Display with metric or nautical units.
time (UTC)temp
F
wind
direction
speed
MPH
gust
MPH
rain 1hr
in
rain 24hr
in
rain mn
in
humidity
%
barometer
mb
20260503194536 52 212 1.0 5.0 0.00 0.00 0.00 32 1015.8
20260503193033 54 199 0.0 3.0 0.00 0.00 0.00 32 1015.9
20260503191532 53 251 0.0 4.0 0.00 0.00 0.00 33 1016.1
20260503190035 52 269 1.0 4.0 0.00 0.00 0.00 32 1016.4
20260503184527 51 145 1.0 4.0 0.00 0.00 0.00 31 1016.7
20260503183026 52 205 0.0 4.0 0.00 0.00 0.00 31 1016.9
20260503181525 53 206 0.0 5.0 0.00 0.00 0.00 29 1017.1
20260503180024 52 248 0.0 5.0 0.00 0.00 0.00 32 1017.3
20260503174529 52 214 0.0 8.0 0.00 0.00 0.00 31 1017.4
20260503173031 54 72 1.0 8.0 0.00 0.00 0.00 31 1017.4
20260503171516 51 77 1.0 8.0 0.00 0.00 0.00 33 1017.9
20260503081518 29 75 0.0 0.0 0.00 0.00 0.00 73 1020.9
20260503071516 30 75 0.0 0.0 0.00 0.00 0.00 73 1021.3
20260503054509 32 75 0.0 0.0 0.00 0.00 0.00 70 1020.4
20260503053002 32 75 0.0 0.0 0.00 0.00 0.00 70 1020.2
20260503051503 33 75 0.0 0.0 0.00 0.00 0.00 69 1020.2
20260503050001 33 75 0.0 0.0 0.00 0.00 0.00 68 1020.1
20260503044604 34 75 0.0 0.0 0.00 0.00 0.00 67 1020.1
20260503043100 35 236 0.0 0.0 0.00 0.00 0.00 66 1020.1
20260503041606 35 236 0.0 0.0 0.00 0.00 0.00 64 1020.0
20260503040100 37 236 0.0 0.0 0.00 0.00 0.00 63 1019.7
20260503034600 37 236 0.0 0.0 0.00 0.00 0.00 61 1019.5
20260503033058 39 236 0.0 0.0 0.00 0.00 0.00 60 1019.3
20260503031558 39 255 0.0 2.0 0.00 0.00 0.00 59 1019.2
20260503024558 40 264 0.0 0.0 0.00 0.00 0.00 58 1018.7
20260503023106 42 264 0.0 0.0 0.00 0.00 0.00 54 1018.5
20260503021601 43 264 0.0 1.0 0.00 0.00 0.00 51 1018.3
20260503020059 44 11 0.0 1.0 0.00 0.00 0.00 47 1017.9
20260503014556 45 245 0.0 0.0 0.00 0.00 0.00 47 1017.9
20260503013059 46 268 0.0 1.0 0.00 0.00 0.00 44 1017.9
20260503011617 47 259 0.0 3.0 0.00 0.00 0.00 43 1017.9
20260503010056 49 226 0.0 6.0 0.00 0.00 0.00 41 1017.9
20260503004553 51 203 0.0 5.0 0.00 0.00 0.00 37 1017.9
20260503003053 54 162 0.0 6.0 0.00 0.00 0.00 35 1018.2
20260503001552 57 215 1.0 5.0 0.00 0.00 0.00 29 1018.0
20260503000103 57 210 2.0 8.0 0.00 0.00 0.00 29 1017.9
20260502234600 57 225 1.0 6.0 0.00 0.00 0.00 27 1018.1
20260502233046 56 278 1.0 4.0 0.00 0.00 0.00 27 1018.3
20260502231542 55 255 1.0 3.0 0.00 0.00 0.00 29 1018.6
20260502230043 54 229 1.0 3.0 0.00 0.00 0.00 29 1018.8
20260502224539 50 162 0.0 1.0 0.00 0.00 0.00 36 1018.9
20260502223038 50 131 0.0 8.0 0.00 0.00 0.00 37 1019.0
20260502221538 51 180 0.0 4.0 0.00 0.00 0.00 31 1019.1
20260502220043 52 134 0.0 4.0 0.00 0.00 0.00 31 1019.4
20260502214538 53 228 1.0 4.0 0.00 0.00 0.00 31 1019.6
20260502213040 52 276 2.0 5.0 0.00 0.00 0.00 32 1019.8
20260502211538 53 177 1.0 6.0 0.00 0.00 0.00 33 1020.1
20260502210034 53 150 1.0 4.0 0.00 0.00 0.00 30 1020.1
20260502204537 52 205 2.0 8.0 0.00 0.00 0.00 33 1020.3
20260502203033 51 223 0.0 3.0 0.00 0.00 0.00 31 1020.4
20260502201541 51 242 1.0 3.0 0.00 0.00 0.00 31 1020.4
20260502200031 51 233 0.0 5.0 0.00 0.00 0.00 30 1020.5